AirNav   Air Wisconsin Up To $57,000 Bonus
 
 1685 users online  

4NC0 Boyd's Hawks Creek Airport
Mocksville, North Carolina, USA

GOING TO MOCKSVILLE?


FAA INFORMATION EFFECTIVE 18 JULY 2019

Location

FAA Identifier: 4NC0
Lat/Long: 35-53-56.5800N / 080-37-03.5600W
35-53.943000N / 080-37.059333W
35.8990500 / -80.6176556
(estimated)
Elevation: 815 ft. / 248 m (estimated)
Variation: 06W (1985)
From city: 3 miles W of MOCKSVILLE, NC
Time zone: UTC -4 (UTC -5 during Standard Time)
Zip code: 27028

Airport Operations

Airport use: Private use. Permission required prior to landing
Activation date: 03/1985
Control tower: no
ARTCC: ATLANTA CENTER
FSS: RALEIGH FLIGHT SERVICE STATION
Attendance: UNATNDD
Wind indicator: yes
Segmented circle: no

Airport Communications

WX AWOS-3 at RUQ (16 nm S): 118.175 (704-637-6197)
WX AWOS-3 at EXX (17 nm SE): 119.825 (336-956-2967)
WX AWOS-3 at SVH (18 nm SW): 119.225 (704-873-1978)

Nearby radio navigation aids

VOR radial/distance  VOR name  Freq  Var
BZMr093/30.3BARRETTS MOUNTAIN VOR/DME110.8006W
GSOr257/32.4GREENSBORO VORTAC116.2003W

 
NDB name  Hdg/Dist  Freq  Var  ID
ROVDY334/11.727506WRU .-. ..-
ZEPHYR176/25.232608WZEF --.. . ..-.

Airport Services

Runway Information

Runway 11/29

Dimensions: 2000 x 60 ft. / 610 x 18 m
Surface: turf
RUNWAY 11  RUNWAY 29
Traffic pattern: leftleft
Obstructions: 30 ft. trees, 100 ft. from runway20 ft. pline, 800 ft. from runway

Airport Ownership and Management from official FAA records

Ownership: Privately-owned
Owner: DON J. BOYD
196 MCALLISTER RD
MOCKSVILLE, NC 27028
Phone 336-492-2080
Manager: DON J. BOYD
196 MCALLISTER RD
MOCKSVILLE, NC 27028
Phone 336-408-0785

Airport Operational Statistics

Aircraft based on the field: 3
Single engine airplanes: 3
    

Additional Remarks

FOR CD CTC ATLANTA ARTCC AT 770-210-7692.

Instrument Procedures

There are no published instrument procedures at 4NC0.

Some nearby airports with instrument procedures:

8A7 - Twin Lakes Airport (8 nm E)
KRUQ - Mid-Carolina Regional Airport (16 nm S)
KEXX - Davidson County Airport (17 nm SE)
KSVH - Statesville Regional Airport (18 nm SW)
14A - Lake Norman Airpark (22 nm SW)
 
Loc | Ops | Rwys | IFR | FBO | Links
Com | Nav | Svcs | Stats | Notes
Area around 4NC0 (Boyd's Hawks Creek Airport)
 
Road maps at: MapQuest Bing Google
 
Aerial photo
WARNING: Photo may not be current or correct
Aerial photo of 4NC0 (Boyd's Hawks Creek Airport)
Do you have a better or more recent aerial photo of Boyd's Hawks Creek Airport that you would like to share? If so, please send us your photo.

 
Sectional chart

 
Airport distance calculator
Flying to Boyd's Hawks Creek Airport? Find the distance to fly.

From to 4NC0

Sunrise and sunset
Times for 18-Jul-2019
 Local
(UTC-4)
 Zulu
(UTC)
Morning civil twilight05:5109:51
Sunrise06:2110:21
Sunset20:3700:37
Evening civil twilight21:0601:06

Current date and time
Zulu (UTC)  18-Jul-2019 16:33:44
Local (UTC-4)  18-Jul-2019 12:33:44
 
METAR
KRUQ 
16nm S 
181600Z AUTO 26003KT 10SM CLR 30/22 A3001 RMK AO2 T03020223
KEXX 
17nm SE 
181615Z AUTO 00000KT 10SM BKN090 BKN120 30/23 A3001 RMK AO2 T03020233
KSVH 
18nm SW 
181615Z AUTO 27003KT 10SM SCT040 33/22 A3001 RMK AO2 T03270215
KINT 
24nm NE 
181554Z 28005KT 10SM SCT041 BKN095 31/21 A3002 RMK AO2 SLP151 T03110206
KUKF 
30nm NW 
181615Z AUTO 00000KT 10SM BKN095 BKN120 28/23 A3009 RMK AO2
KJQF 
31nm S 
181555Z 29006KT 10SM SCT045 33/20 A3004
TAF
KINT 
24nm NE 
181120Z 1812/1912 24008KT P6SM SCT050 BKN250
NOTAMs
Click for the latest NOTAMs
NOTAMs are issued by the DoD/FAA and will open in a separate window not controlled by AirNav.

 

 
 

Would you like to see your business listed on this page?

 If your business provides an interesting product or service to pilots, flight crews, aircraft, or users of the Boyd's Hawks Creek Airport, you should consider listing it here.  To start the listing process, click on the button below
 
Add a business
 

Other Pages about Boyd's Hawks Creek Airport

Update a link
 
Copyright © AirNav, LLC. All rights reserved. Privacy Policy  Contact